| time (UTC) | temp F | wind direction | speed MPH | gust MPH | rain 1hr in | rain 24hr in | rain mn in | humidity % | barometer mb |
| 20260509135543 | 59 | 197 | 1.0 | 4.0 | 0.00 | 0.00 | 0.00 | 29 | 1018.5 |
| 20260509135043 | 58 | 134 | 1.0 | 4.0 | 0.00 | 0.00 | 0.00 | 30 | 1018.5 |
| 20260509134552 | 57 | 134 | 0.0 | 3.0 | 0.00 | 0.00 | 0.00 | 31 | 1018.5 |
| 20260509134043 | 56 | 134 | 0.0 | 4.0 | 0.00 | 0.00 | 0.00 | 32 | 1018.4 |
| 20260509133543 | 56 | 141 | 0.0 | 4.0 | 0.00 | 0.00 | 0.00 | 33 | 1018.4 |
| 20260509133052 | 55 | 142 | 1.0 | 4.0 | 0.00 | 0.00 | 0.00 | 34 | 1018.4 |
| 20260509132543 | 54 | 0 | 1.0 | 3.0 | 0.00 | 0.00 | 0.00 | 34 | 1018.2 |
| 20260509132045 | 53 | 137 | 1.0 | 4.0 | 0.00 | 0.00 | 0.00 | 34 | 1018.2 |
| 20260509131553 | 53 | 137 | 1.0 | 4.0 | 0.00 | 0.00 | 0.00 | 34 | 1018.1 |
| 20260509131042 | 52 | 137 | 2.0 | 4.0 | 0.00 | 0.00 | 0.00 | 35 | 1018.1 |
| 20260509130542 | 51 | 134 | 2.0 | 4.0 | 0.00 | 0.00 | 0.00 | 36 | 1018.1 |
| 20260509125542 | 50 | 107 | 1.0 | 3.0 | 0.00 | 0.00 | 0.00 | 36 | 1018.1 |
| 20260509125042 | 50 | 107 | 1.0 | 3.0 | 0.00 | 0.00 | 0.00 | 36 | 1018.1 |
| 20260509124605 | 50 | 153 | 1.0 | 3.0 | 0.00 | 0.00 | 0.00 | 36 | 1018.0 |
| 20260509124044 | 49 | 153 | 1.0 | 3.0 | 0.00 | 0.00 | 0.00 | 37 | 1017.9 |
| 20260509123543 | 49 | 153 | 1.0 | 5.0 | 0.00 | 0.00 | 0.00 | 37 | 1017.9 |
| 20260509123053 | 49 | 153 | 2.0 | 5.0 | 0.00 | 0.00 | 0.00 | 36 | 1017.7 |
| 20260509122547 | 49 | 153 | 3.0 | 5.0 | 0.00 | 0.00 | 0.00 | 36 | 1017.7 |
| 20260509122047 | 49 | 153 | 1.0 | 3.0 | 0.00 | 0.00 | 0.00 | 36 | 1017.6 |
| 20260509121552 | 49 | 153 | 1.0 | 3.0 | 0.00 | 0.00 | 0.00 | 36 | 1017.5 |
| 20260509121043 | 49 | 153 | 1.0 | 5.0 | 0.00 | 0.00 | 0.00 | 36 | 1017.5 |
| 20260509120543 | 50 | 153 | 2.0 | 5.0 | 0.00 | 0.00 | 0.00 | 36 | 1017.4 |
| 20260509120104 | 50 | 153 | 2.0 | 5.0 | 0.00 | 0.00 | 0.00 | 36 | 1017.5 |
| 20260509115542 | 50 | 153 | 2.0 | 5.0 | 0.00 | 0.00 | 0.00 | 36 | 1017.5 |
| 20260509115042 | 50 | 153 | 2.0 | 5.0 | 0.00 | 0.00 | 0.00 | 35 | 1017.5 |
| 20260509114554 | 50 | 153 | 1.0 | 5.0 | 0.00 | 0.00 | 0.00 | 35 | 1017.3 |
| 20260509114043 | 51 | 153 | 2.0 | 5.0 | 0.00 | 0.00 | 0.00 | 35 | 1017.3 |
| 20260509113546 | 51 | 153 | 2.0 | 5.0 | 0.00 | 0.00 | 0.00 | 35 | 1017.2 |
| 20260509113055 | 51 | 153 | 2.0 | 5.0 | 0.00 | 0.00 | 0.00 | 35 | 1017.2 |
| 20260509112543 | 51 | 153 | 3.0 | 6.0 | 0.00 | 0.00 | 0.00 | 34 | 1017.2 |
| 20260509112043 | 51 | 96 | 2.0 | 6.0 | 0.00 | 0.00 | 0.00 | 34 | 1017.0 |
| 20260509111552 | 52 | 133 | 2.0 | 5.0 | 0.00 | 0.00 | 0.00 | 34 | 1017.0 |
| 20260509111043 | 52 | 136 | 2.0 | 4.0 | 0.00 | 0.00 | 0.00 | 34 | 1017.1 |
| 20260509110543 | 52 | 98 | 2.0 | 4.0 | 0.00 | 0.00 | 0.00 | 34 | 1017.1 |
| 20260509110053 | 51 | 88 | 2.0 | 4.0 | 0.00 | 0.00 | 0.00 | 34 | 1017.0 |
| 20260509105543 | 51 | 94 | 2.0 | 4.0 | 0.00 | 0.00 | 0.00 | 34 | 1017.1 |
| 20260509105043 | 51 | 101 | 2.0 | 8.0 | 0.00 | 0.00 | 0.00 | 34 | 1017.0 |
| 20260509104552 | 51 | 93 | 3.0 | 8.0 | 0.00 | 0.00 | 0.00 | 35 | 1016.9 |
| 20260509104042 | 51 | 98 | 3.0 | 8.0 | 0.00 | 0.00 | 0.00 | 35 | 1016.9 |
| 20260509103544 | 51 | 96 | 3.0 | 7.0 | 0.00 | 0.00 | 0.00 | 35 | 1017.0 |
| 20260509103054 | 51 | 91 | 3.0 | 6.0 | 0.00 | 0.00 | 0.00 | 35 | 1016.9 |
| 20260509102542 | 51 | 90 | 2.0 | 4.0 | 0.00 | 0.00 | 0.00 | 35 | 1016.9 |
| 20260509102044 | 51 | 99 | 1.0 | 6.0 | 0.00 | 0.00 | 0.00 | 35 | 1017.0 |
| 20260509101550 | 51 | 100 | 1.0 | 6.0 | 0.00 | 0.00 | 0.00 | 35 | 1017.0 |
| 20260509101044 | 51 | 94 | 2.0 | 6.0 | 0.00 | 0.00 | 0.00 | 35 | 1017.0 |
| 20260509100543 | 51 | 97 | 2.0 | 6.0 | 0.00 | 0.00 | 0.00 | 35 | 1017.0 |
| 20260509100055 | 51 | 94 | 2.0 | 6.0 | 0.00 | 0.00 | 0.00 | 35 | 1017.1 |
| 20260509095542 | 51 | 96 | 2.0 | 6.0 | 0.00 | 0.00 | 0.00 | 34 | 1017.0 |
| 20260509095043 | 51 | 96 | 1.0 | 3.0 | 0.00 | 0.00 | 0.00 | 34 | 1017.0 |
| 20260509094553 | 51 | 96 | 1.0 | 4.0 | 0.00 | 0.00 | 0.00 | 34 | 1016.9 |
| 20260509094043 | 51 | 96 | 1.0 | 4.0 | 0.00 | 0.00 | 0.00 | 34 | 1016.9 |
| 20260509093543 | 51 | 96 | 1.0 | 3.0 | 0.00 | 0.00 | 0.00 | 34 | 1017.0 |
| 20260509093052 | 51 | 96 | 1.0 | 4.0 | 0.00 | 0.00 | 0.00 | 34 | 1017.0 |
| 20260509092542 | 51 | 96 | 1.0 | 4.0 | 0.00 | 0.00 | 0.00 | 34 | 1016.9 |
| 20260509092044 | 52 | 96 | 2.0 | 4.0 | 0.00 | 0.00 | 0.00 | 34 | 1017.0 |
| 20260509091552 | 52 | 96 | 2.0 | 4.0 | 0.00 | 0.00 | 0.00 | 34 | 1016.9 |
| 20260509091045 | 52 | 96 | 2.0 | 4.0 | 0.00 | 0.00 | 0.00 | 34 | 1016.9 |
| 20260509090545 | 52 | 96 | 2.0 | 3.0 | 0.00 | 0.00 | 0.00 | 34 | 1016.9 |
| 20260509090055 | 52 | 96 | 1.0 | 4.0 | 0.00 | 0.00 | 0.00 | 33 | 1016.9 |
| 20260509085543 | 52 | 96 | 2.0 | 4.0 | 0.00 | 0.00 | 0.00 | 34 | 1016.9 |
| 20260509085043 | 52 | 96 | 2.0 | 4.0 | 0.00 | 0.00 | 0.00 | 33 | 1016.8 |
| 20260509084553 | 52 | 96 | 2.0 | 4.0 | 0.00 | 0.00 | 0.00 | 32 | 1016.7 |
| 20260509084043 | 53 | 96 | 2.0 | 4.0 | 0.00 | 0.00 | 0.00 | 32 | 1016.8 |
| 20260509083542 | 53 | 89 | 2.0 | 4.0 | 0.00 | 0.00 | 0.00 | 33 | 1016.9 |
| 20260509083050 | 53 | 87 | 2.0 | 4.0 | 0.00 | 0.00 | 0.00 | 33 | 1016.9 |
| 20260509082543 | 53 | 86 | 1.0 | 3.0 | 0.00 | 0.00 | 0.00 | 32 | 1016.8 |
| 20260509082046 | 54 | 86 | 1.0 | 3.0 | 0.00 | 0.00 | 0.00 | 31 | 1016.8 |
| 20260509081552 | 54 | 86 | 1.0 | 4.0 | 0.00 | 0.00 | 0.00 | 31 | 1016.8 |
| 20260509081057 | 54 | 86 | 1.0 | 6.0 | 0.00 | 0.00 | 0.00 | 31 | 1016.8 |
| 20260509080541 | 54 | 87 | 3.0 | 7.0 | 0.00 | 0.00 | 0.00 | 31 | 1016.8 |
| 20260509080052 | 54 | 82 | 4.0 | 7.0 | 0.00 | 0.00 | 0.00 | 31 | 1016.8 |
| 20260509075540 | 54 | 84 | 5.0 | 7.0 | 0.00 | 0.00 | 0.00 | 31 | 1016.8 |
| 20260509075041 | 54 | 71 | 4.0 | 7.0 | 0.00 | 0.00 | 0.00 | 31 | 1016.9 |
| 20260509074546 | 54 | 78 | 4.0 | 8.0 | 0.00 | 0.00 | 0.00 | 31 | 1016.8 |
| 20260509074042 | 54 | 84 | 5.0 | 8.0 | 0.00 | 0.00 | 0.00 | 31 | 1016.9 |
| 20260509073541 | 54 | 84 | 5.0 | 8.0 | 0.00 | 0.00 | 0.00 | 31 | 1016.9 |
| 20260509073056 | 54 | 74 | 6.0 | 8.0 | 0.00 | 0.00 | 0.00 | 31 | 1016.9 |
| 20260509072542 | 54 | 78 | 5.0 | 8.0 | 0.00 | 0.00 | 0.00 | 31 | 1016.9 |
| 20260509072041 | 54 | 80 | 4.0 | 7.0 | 0.00 | 0.00 | 0.00 | 31 | 1016.9 |
| 20260509071555 | 54 | 78 | 4.0 | 7.0 | 0.00 | 0.00 | 0.00 | 30 | 1016.9 |
| 20260509071044 | 54 | 80 | 4.0 | 6.0 | 0.00 | 0.00 | 0.00 | 30 | 1017.0 |
| 20260509070539 | 54 | 83 | 3.0 | 8.0 | 0.00 | 0.00 | 0.00 | 30 | 1017.0 |
| 20260509070050 | 55 | 78 | 4.0 | 8.0 | 0.00 | 0.00 | 0.00 | 30 | 1017.1 |
| 20260509065540 | 55 | 81 | 5.0 | 7.0 | 0.00 | 0.00 | 0.00 | 30 | 1017.1 |
| 20260509065041 | 55 | 82 | 3.0 | 8.0 | 0.00 | 0.00 | 0.00 | 30 | 1017.1 |
| 20260509064548 | 55 | 84 | 4.0 | 8.0 | 0.00 | 0.00 | 0.00 | 30 | 1017.1 |
| 20260509064040 | 55 | 84 | 5.0 | 8.0 | 0.00 | 0.00 | 0.00 | 29 | 1017.1 |
| 20260509063540 | 55 | 78 | 4.0 | 7.0 | 0.00 | 0.00 | 0.00 | 29 | 1017.1 |
| 20260509063051 | 55 | 79 | 5.0 | 7.0 | 0.00 | 0.00 | 0.00 | 29 | 1017.3 |
| 20260509062542 | 55 | 78 | 5.0 | 7.0 | 0.00 | 0.00 | 0.00 | 29 | 1017.2 |
| 20260509062042 | 56 | 80 | 4.0 | 7.0 | 0.00 | 0.00 | 0.00 | 29 | 1017.3 |
| 20260509061552 | 56 | 84 | 3.0 | 6.0 | 0.00 | 0.00 | 0.00 | 28 | 1017.2 |
| 20260509061041 | 56 | 90 | 3.0 | 7.0 | 0.00 | 0.00 | 0.00 | 28 | 1017.3 |
| 20260509060541 | 56 | 85 | 3.0 | 7.0 | 0.00 | 0.00 | 0.00 | 28 | 1017.2 |
| 20260509055541 | 57 | 78 | 4.0 | 7.0 | 0.00 | 0.00 | 0.00 | 27 | 1017.1 |
| 20260509055040 | 57 | 75 | 5.0 | 7.0 | 0.00 | 0.00 | 0.00 | 27 | 1017.2 |
| 20260509054603 | 57 | 79 | 4.0 | 7.0 | 0.00 | 0.00 | 0.00 | 27 | 1017.1 |
| 20260509054045 | 58 | 68 | 5.0 | 7.0 | 0.00 | 0.00 | 0.00 | 26 | 1017.1 |
| 20260509053542 | 58 | 90 | 3.0 | 4.0 | 0.00 | 0.00 | 0.00 | 26 | 1017.3 |
| 20260509053049 | 58 | 81 | 3.0 | 4.0 | 0.00 | 0.00 | 0.00 | 26 | 1017.3 |
| 20260509052541 | 59 | 89 | 2.0 | 6.0 | 0.00 | 0.00 | 0.00 | 25 | 1017.3 |
| 20260509052043 | 59 | 89 | 3.0 | 7.0 | 0.00 | 0.00 | 0.00 | 25 | 1017.3 |
| 20260509051551 | 59 | 75 | 4.0 | 7.0 | 0.00 | 0.00 | 0.00 | 25 | 1017.4 |
| 20260509051041 | 60 | 85 | 4.0 | 7.0 | 0.00 | 0.00 | 0.00 | 24 | 1017.4 |
| 20260509050548 | 60 | 74 | 4.0 | 7.0 | 0.00 | 0.00 | 0.00 | 24 | 1017.4 |
| 20260509050059 | 61 | 74 | 3.0 | 7.0 | 0.00 | 0.00 | 0.00 | 24 | 1017.4 |
| 20260509045544 | 61 | 81 | 4.0 | 7.0 | 0.00 | 0.00 | 0.00 | 24 | 1017.5 |
| 20260509045043 | 61 | 90 | 4.0 | 6.0 | 0.00 | 0.00 | 0.00 | 23 | 1017.5 |
| 20260509044552 | 61 | 82 | 2.0 | 9.0 | 0.00 | 0.00 | 0.00 | 23 | 1017.5 |
| 20260509044043 | 61 | 90 | 4.0 | 9.0 | 0.00 | 0.00 | 0.00 | 23 | 1017.5 |
| 20260509043543 | 62 | 46 | 1.0 | 9.0 | 0.00 | 0.00 | 0.00 | 23 | 1017.5 |
| 20260509043046 | 62 | 103 | 3.0 | 9.0 | 0.00 | 0.00 | 0.00 | 23 | 1017.5 |
| 20260509042543 | 62 | 72 | 2.0 | 9.0 | 0.00 | 0.00 | 0.00 | 22 | 1017.6 |
| 20260509042043 | 63 | 298 | 1.0 | 6.0 | 0.00 | 0.00 | 0.00 | 22 | 1017.4 |
| 20260509041547 | 63 | 298 | 2.0 | 6.0 | 0.00 | 0.00 | 0.00 | 22 | 1017.4 |
| 20260509041042 | 63 | 288 | 2.0 | 6.0 | 0.00 | 0.00 | 0.00 | 22 | 1017.4 |
| 20260509040544 | 63 | 277 | 3.0 | 6.0 | 0.00 | 0.00 | 0.00 | 21 | 1017.4 |
| 20260509040054 | 63 | 276 | 3.0 | 6.0 | 0.00 | 0.00 | 0.00 | 21 | 1017.4 |
| 20260509035543 | 63 | 290 | 2.0 | 6.0 | 0.00 | 0.00 | 0.00 | 21 | 1017.3 |
| 20260509035043 | 63 | 279 | 3.0 | 7.0 | 0.00 | 0.00 | 0.00 | 21 | 1017.3 |
| 20260509034558 | 64 | 285 | 3.0 | 7.0 | 0.00 | 0.00 | 0.00 | 21 | 1017.3 |
| 20260509034044 | 64 | 302 | 3.0 | 7.0 | 0.00 | 0.00 | 0.00 | 20 | 1017.2 |
| 20260509033543 | 64 | 308 | 2.0 | 7.0 | 0.00 | 0.00 | 0.00 | 20 | 1017.0 |
| 20260509033051 | 64 | 298 | 2.0 | 7.0 | 0.00 | 0.00 | 0.00 | 20 | 1016.9 |
| 20260509032543 | 65 | 286 | 3.0 | 8.0 | 0.00 | 0.00 | 0.00 | 20 | 1016.8 |
| 20260509032042 | 65 | 286 | 3.0 | 9.0 | 0.00 | 0.00 | 0.00 | 20 | 1016.6 |
| 20260509031558 | 65 | 271 | 4.0 | 9.0 | 0.00 | 0.00 | 0.00 | 20 | 1016.6 |
| 20260509031044 | 66 | 282 | 4.0 | 9.0 | 0.00 | 0.00 | 0.00 | 19 | 1016.5 |
| 20260509030546 | 66 | 295 | 5.0 | 9.0 | 0.00 | 0.00 | 0.00 | 19 | 1016.5 |
| 20260509030049 | 66 | 290 | 5.0 | 9.0 | 0.00 | 0.00 | 0.00 | 19 | 1016.4 |
| 20260509025542 | 67 | 277 | 3.0 | 9.0 | 0.00 | 0.00 | 0.00 | 19 | 1016.4 |
| 20260509025042 | 67 | 297 | 4.0 | 9.0 | 0.00 | 0.00 | 0.00 | 18 | 1016.4 |
| 20260509024549 | 68 | 275 | 4.0 | 9.0 | 0.00 | 0.00 | 0.00 | 18 | 1016.2 |
| 20260509024043 | 68 | 270 | 4.0 | 10.0 | 0.00 | 0.00 | 0.00 | 18 | 1016.1 |
| 20260509023542 | 68 | 292 | 3.0 | 10.0 | 0.00 | 0.00 | 0.00 | 17 | 1016.1 |
| 20260509023054 | 69 | 284 | 5.0 | 11.0 | 0.00 | 0.00 | 0.00 | 17 | 1016.0 |
| 20260509022543 | 69 | 251 | 5.0 | 11.0 | 0.00 | 0.00 | 0.00 | 17 | 1016.0 |
| 20260509022043 | 70 | 286 | 4.0 | 14.0 | 0.00 | 0.00 | 0.00 | 16 | 1015.8 |
| 20260509021546 | 71 | 273 | 6.0 | 14.0 | 0.00 | 0.00 | 0.00 | 16 | 1015.7 |
| 20260509021044 | 71 | 299 | 7.0 | 14.0 | 0.00 | 0.00 | 0.00 | 15 | 1015.5 |
| 20260509020544 | 72 | 283 | 5.0 | 11.0 | 0.00 | 0.00 | 0.00 | 15 | 1015.5 |
| 20260509020050 | 73 | 286 | 6.0 | 11.0 | 0.00 | 0.00 | 0.00 | 15 | 1015.4 |
| 20260509015543 | 73 | 296 | 5.0 | 12.0 | 0.00 | 0.00 | 0.00 | 14 | 1015.3 |
| 20260509015042 | 74 | 298 | 4.0 | 12.0 | 0.00 | 0.00 | 0.00 | 14 | 1015.2 |
| 20260509014547 | 75 | 276 | 7.0 | 12.0 | 0.00 | 0.00 | 0.00 | 14 | 1015.2 |
| 20260509014043 | 75 | 315 | 7.0 | 13.0 | 0.00 | 0.00 | 0.00 | 14 | 1015.1 |
| 20260509013542 | 76 | 303 | 7.0 | 15.0 | 0.00 | 0.00 | 0.00 | 14 | 1015.0 |
| 20260509013109 | 76 | 285 | 8.0 | 23.0 | 0.00 | 0.00 | 0.00 | 14 | 1014.9 |
| 20260509012543 | 77 | 309 | 10.0 | 23.0 | 0.00 | 0.00 | 0.00 | 13 | 1014.9 |
| 20260509012044 | 78 | 286 | 2.0 | 10.0 | 0.00 | 0.00 | 0.00 | 13 | 1014.8 |
| 20260509011548 | 78 | 266 | 2.0 | 12.0 | 0.00 | 0.00 | 0.00 | 13 | 1014.9 |
| 20260509011042 | 78 | 323 | 4.0 | 12.0 | 0.00 | 0.00 | 0.00 | 14 | 1014.8 |
| 20260509010543 | 78 | 258 | 6.0 | 12.0 | 0.00 | 0.00 | 0.00 | 13 | 1014.9 |
| 20260509010050 | 78 | 319 | 7.0 | 13.0 | 0.00 | 0.00 | 0.00 | 13 | 1014.9 |
| 20260509005543 | 79 | 286 | 7.0 | 13.0 | 0.00 | 0.00 | 0.00 | 13 | 1014.9 |
| 20260509005042 | 79 | 309 | 4.0 | 10.0 | 0.00 | 0.00 | 0.00 | 13 | 1014.8 |
| 20260509004553 | 79 | 259 | 5.0 | 10.0 | 0.00 | 0.00 | 0.00 | 13 | 1014.8 |
| 20260509004042 | 80 | 258 | 5.0 | 11.0 | 0.00 | 0.00 | 0.00 | 13 | 1014.9 |
| 20260509003543 | 81 | 273 | 4.0 | 11.0 | 0.00 | 0.00 | 0.00 | 13 | 1014.9 |
| 20260509003056 | 82 | 264 | 5.0 | 12.0 | 0.00 | 0.00 | 0.00 | 12 | 1014.9 |
| 20260509002545 | 82 | 284 | 4.0 | 12.0 | 0.00 | 0.00 | 0.00 | 12 | 1014.8 |
| 20260509002042 | 82 | 257 | 5.0 | 10.0 | 0.00 | 0.00 | 0.00 | 13 | 1014.9 |
| 20260509001547 | 82 | 269 | 3.0 | 8.0 | 0.00 | 0.00 | 0.00 | 12 | 1014.9 |
| 20260509001043 | 82 | 254 | 2.0 | 6.0 | 0.00 | 0.00 | 0.00 | 13 | 1014.9 |
| 20260509000543 | 81 | 0 | 1.0 | 13.0 | 0.00 | 0.00 | 0.00 | 13 | 1015.0 |
| 20260509000044 | 81 | 134 | 0.0 | 13.0 | 0.00 | 0.00 | 0.00 | 13 | 1015.0 |
| 20260508235540 | 81 | 309 | 4.0 | 13.0 | 0.00 | 0.00 | 0.00 | 13 | 1015.0 |
| 20260508235042 | 81 | 294 | 5.0 | 11.0 | 0.00 | 0.00 | 0.00 | 13 | 1015.1 |
| 20260508234549 | 82 | 312 | 1.0 | 3.0 | 0.00 | 0.00 | 0.00 | 13 | 1015.1 |
| 20260508234042 | 82 | 168 | 1.0 | 8.0 | 0.00 | 0.00 | 0.00 | 13 | 1015.1 |
| 20260508233543 | 82 | 125 | 1.0 | 8.0 | 0.00 | 0.00 | 0.00 | 13 | 1015.1 |
| 20260508233052 | 83 | 0 | 3.0 | 8.0 | 0.00 | 0.00 | 0.00 | 13 | 1015.0 |
| 20260508232542 | 83 | 0 | 2.0 | 5.0 | 0.00 | 0.00 | 0.00 | 13 | 1015.0 |
| 20260508232042 | 83 | 173 | 1.0 | 5.0 | 0.00 | 0.00 | 0.00 | 13 | 1015.0 |
| 20260508231555 | 84 | 0 | 1.0 | 12.0 | 0.00 | 0.00 | 0.00 | 13 | 1015.0 |
| 20260508231043 | 84 | 221 | 2.0 | 12.0 | 0.00 | 0.00 | 0.00 | 12 | 1014.9 |
| 20260508230546 | 85 | 221 | 2.0 | 7.0 | 0.00 | 0.00 | 0.00 | 13 | 1014.9 |
| 20260508230100 | 84 | 153 | 3.0 | 7.0 | 0.00 | 0.00 | 0.00 | 12 | 1015.1 |
| 20260508225542 | 84 | 238 | 1.0 | 9.0 | 0.00 | 0.00 | 0.00 | 13 | 1015.0 |
| 20260508225043 | 83 | 0 | 3.0 | 9.0 | 0.00 | 0.00 | 0.00 | 13 | 1015.0 |
| 20260508224604 | 83 | 254 | 2.0 | 8.0 | 0.00 | 0.00 | 0.00 | 13 | 1015.1 |
| 20260508224043 | 82 | 272 | 1.0 | 11.0 | 0.00 | 0.00 | 0.00 | 13 | 1015.1 |
| 20260508223547 | 82 | 340 | 6.0 | 11.0 | 0.00 | 0.00 | 0.00 | 13 | 1015.1 |
| 20260508223107 | 82 | 333 | 1.0 | 11.0 | 0.00 | 0.00 | 0.00 | 13 | 1015.1 |
| 20260508222543 | 82 | 334 | 3.0 | 12.0 | 0.00 | 0.00 | 0.00 | 13 | 1015.2 |
| 20260508222042 | 81 | 54 | 6.0 | 12.0 | 0.00 | 0.00 | 0.00 | 13 | 1015.1 |
| 20260508221557 | 81 | 329 | 5.0 | 12.0 | 0.00 | 0.00 | 0.00 | 14 | 1015.3 |
| 20260508221044 | 81 | 340 | 3.0 | 14.0 | 0.00 | 0.00 | 0.00 | 14 | 1015.3 |
| 20260508220542 | 81 | 352 | 7.0 | 14.0 | 0.00 | 0.00 | 0.00 | 14 | 1015.3 |
| 20260508220053 | 81 | 333 | 4.0 | 8.0 | 0.00 | 0.00 | 0.00 | 13 | 1015.4 |
| 20260508215542 | 81 | 333 | 2.0 | 10.0 | 0.00 | 0.00 | 0.00 | 13 | 1015.6 |
| 20260508215042 | 81 | 323 | 3.0 | 10.0 | 0.00 | 0.00 | 0.00 | 13 | 1015.7 |
| 20260508214553 | 82 | 315 | 2.0 | 13.0 | 0.00 | 0.00 | 0.00 | 13 | 1015.8 |
| 20260508214043 | 81 | 290 | 4.0 | 14.0 | 0.00 | 0.00 | 0.00 | 13 | 1015.8 |
| 20260508213542 | 80 | 285 | 5.0 | 14.0 | 0.00 | 0.00 | 0.00 | 14 | 1016.0 |
| 20260508213112 | 80 | 64 | 8.0 | 14.0 | 0.00 | 0.00 | 0.00 | 13 | 1016.0 |
| 20260508212544 | 81 | 342 | 2.0 | 12.0 | 0.00 | 0.00 | 0.00 | 13 | 1016.1 |
| 20260508212042 | 80 | 157 | 2.0 | 13.0 | 0.00 | 0.00 | 0.00 | 14 | 1016.0 |
| 20260508211549 | 78 | 103 | 4.0 | 14.0 | 0.00 | 0.00 | 0.00 | 15 | 1016.2 |
| 20260508211042 | 79 | 326 | 9.0 | 17.0 | 0.00 | 0.00 | 0.00 | 14 | 1016.2 |
| 20260508210543 | 80 | 271 | 9.0 | 17.0 | 0.00 | 0.00 | 0.00 | 14 | 1016.2 |
| 20260508210048 | 81 | 278 | 9.0 | 17.0 | 0.00 | 0.00 | 0.00 | 13 | 1016.2 |
| 20260508205542 | 80 | 142 | 4.0 | 11.0 | 0.00 | 0.00 | 0.00 | 14 | 1016.2 |
| 20260508205042 | 78 | 250 | 2.0 | 10.0 | 0.00 | 0.00 | 0.00 | 14 | 1016.4 |
| 20260508204550 | 77 | 327 | 6.0 | 10.0 | 0.00 | 0.00 | 0.00 | 15 | 1016.4 |
| 20260508204042 | 76 | 348 | 3.0 | 14.0 | 0.00 | 0.00 | 0.00 | 16 | 1016.4 |
| 20260508203543 | 75 | 101 | 6.0 | 16.0 | 0.00 | 0.00 | 0.00 | 16 | 1016.6 |
| 20260508203102 | 75 | 346 | 7.0 | 16.0 | 0.00 | 0.00 | 0.00 | 16 | 1016.7 |
| 20260508202542 | 75 | 5 | 10.0 | 18.0 | 0.00 | 0.00 | 0.00 | 15 | 1016.7 |
| 20260508202044 | 76 | 355 | 8.0 | 23.0 | 0.00 | 0.00 | 0.00 | 15 | 1016.8 |
| 20260508201547 | 76 | 302 | 9.0 | 23.0 | 0.00 | 0.00 | 0.00 | 15 | 1016.8 |
| 20260508201044 | 77 | 330 | 8.0 | 16.0 | 0.00 | 0.00 | 0.00 | 15 | 1017.0 |
| 20260508200544 | 76 | 297 | 3.0 | 15.0 | 0.00 | 0.00 | 0.00 | 15 | 1017.0 |
| 20260508200054 | 76 | 317 | 9.0 | 15.0 | 0.00 | 0.00 | 0.00 | 15 | 1017.1 |
| 20260508195543 | 78 | 5 | 10.0 | 15.0 | 0.00 | 0.00 | 0.00 | 14 | 1017.1 |
| 20260508195042 | 79 | 288 | 2.0 | 10.0 | 0.00 | 0.00 | 0.00 | 14 | 1017.2 |
| 20260508194548 | 78 | 254 | 5.0 | 12.0 | 0.00 | 0.00 | 0.00 | 14 | 1017.1 |
| 20260508194042 | 77 | 289 | 2.0 | 12.0 | 0.00 | 0.00 | 0.00 | 15 | 1017.2 |
| 20260508193542 | 77 | 267 | 4.0 | 13.0 | 0.00 | 0.00 | 0.00 | 15 | 1017.3 |
| 20260508193117 | 76 | 310 | 7.0 | 21.0 | 0.00 | 0.00 | 0.00 | 16 | 1017.3 |
| 20260508192542 | 75 | 286 | 4.0 | 21.0 | 0.00 | 0.00 | 0.00 | 16 | 1017.4 |
| 20260508192042 | 74 | 292 | 7.0 | 20.0 | 0.00 | 0.00 | 0.00 | 17 | 1017.2 |
| 20260508191553 | 73 | 324 | 6.0 | 17.0 | 0.00 | 0.00 | 0.00 | 17 | 1017.4 |
| 20260508191043 | 73 | 343 | 7.0 | 18.0 | 0.00 | 0.00 | 0.00 | 17 | 1017.4 |
| 20260508190542 | 74 | 311 | 4.0 | 19.0 | 0.00 | 0.00 | 0.00 | 17 | 1017.5 |
| 20260508190048 | 73 | 284 | 10.0 | 19.0 | 0.00 | 0.00 | 0.00 | 17 | 1017.5 |
| 20260508185543 | 72 | 360 | 7.0 | 19.0 | 0.00 | 0.00 | 0.00 | 17 | 1017.6 |
| 20260508185043 | 72 | 19 | 6.0 | 15.0 | 0.00 | 0.00 | 0.00 | 17 | 1017.5 |
| 20260508184610 | 71 | 49 | 6.0 | 21.0 | 0.00 | 0.00 | 0.00 | 17 | 1017.5 |
| 20260508184043 | 71 | 287 | 13.0 | 21.0 | 0.00 | 0.00 | 0.00 | 18 | 1017.7 |
| 20260508183542 | 71 | 324 | 2.0 | 15.0 | 0.00 | 0.00 | 0.00 | 18 | 1017.7 |
| 20260508183048 | 71 | 45 | 8.0 | 16.0 | 0.00 | 0.00 | 0.00 | 18 | 1017.8 |
| 20260508182543 | 71 | 324 | 9.0 | 18.0 | 0.00 | 0.00 | 0.00 | 18 | 1017.9 |
| 20260508182042 | 71 | 28 | 10.0 | 18.0 | 0.00 | 0.00 | 0.00 | 18 | 1018.0 |
| 20260508181549 | 70 | 316 | 7.0 | 18.0 | 0.00 | 0.00 | 0.00 | 18 | 1018.0 |
| 20260508181044 | 70 | 328 | 6.0 | 21.0 | 0.00 | 0.00 | 0.00 | 19 | 1018.0 |
| 20260508180543 | 69 | 333 | 12.0 | 21.0 | 0.00 | 0.00 | 0.00 | 19 | 1017.9 |
| 20260508180056 | 69 | 61 | 11.0 | 20.0 | 0.00 | 0.00 | 0.00 | 18 | 1018.1 |
| 20260508175542 | 69 | 325 | 10.0 | 17.0 | 0.00 | 0.00 | 0.00 | 19 | 1018.1 |
| 20260508175043 | 68 | 65 | 6.0 | 18.0 | 0.00 | 0.00 | 0.00 | 20 | 1018.1 |
| 20260508174606 | 69 | 355 | 12.0 | 20.0 | 0.00 | 0.00 | 0.00 | 19 | 1018.3 |
| 20260508174043 | 68 | 45 | 8.0 | 20.0 | 0.00 | 0.00 | 0.00 | 20 | 1018.4 |
| 20260508173543 | 68 | 12 | 8.0 | 20.0 | 0.00 | 0.00 | 0.00 | 21 | 1018.6 |
| 20260508173059 | 68 | 348 | 13.0 | 24.0 | 0.00 | 0.00 | 0.00 | 20 | 1018.5 |
| 20260508172542 | 67 | 24 | 11.0 | 24.0 | 0.00 | 0.00 | 0.00 | 20 | 1018.6 |
| 20260508172042 | 68 | 337 | 10.0 | 21.0 | 0.00 | 0.00 | 0.00 | 21 | 1018.5 |
| 20260508171612 | 67 | 360 | 12.0 | 21.0 | 0.00 | 0.00 | 0.00 | 21 | 1018.5 |
| 20260508171042 | 67 | 16 | 11.0 | 17.0 | 0.00 | 0.00 | 0.00 | 21 | 1018.6 |
| 20260508170542 | 67 | 352 | 8.0 | 17.0 | 0.00 | 0.00 | 0.00 | 22 | 1018.6 |
| 20260508170050 | 67 | 327 | 11.0 | 18.0 | 0.00 | 0.00 | 0.00 | 21 | 1018.6 |
| 20260508165542 | 67 | 350 | 9.0 | 18.0 | 0.00 | 0.00 | 0.00 | 21 | 1018.6 |
| 20260508165042 | 67 | 16 | 8.0 | 17.0 | 0.00 | 0.00 | 0.00 | 21 | 1018.7 |
| 20260508164548 | 67 | 94 | 8.0 | 17.0 | 0.00 | 0.00 | 0.00 | 22 | 1018.7 |
| 20260508164043 | 67 | 36 | 10.0 | 16.0 | 0.00 | 0.00 | 0.00 | 21 | 1018.8 |
| 20260508163542 | 66 | 28 | 6.0 | 13.0 | 0.00 | 0.00 | 0.00 | 21 | 1018.8 |
| 20260508163043 | 66 | 28 | 6.0 | 12.0 | 0.00 | 0.00 | 0.00 | 20 | 1018.9 |
| 20260508162545 | 66 | 22 | 4.0 | 11.0 | 0.00 | 0.00 | 0.00 | 21 | 1018.8 |
| 20260508162043 | 65 | 335 | 4.0 | 11.0 | 0.00 | 0.00 | 0.00 | 21 | 1018.9 |
| 20260508161551 | 64 | 329 | 5.0 | 11.0 | 0.00 | 0.00 | 0.00 | 21 | 1018.9 |
| 20260508161043 | 64 | 19 | 4.0 | 12.0 | 0.00 | 0.00 | 0.00 | 21 | 1018.9 |
| 20260508160545 | 63 | 347 | 5.0 | 12.0 | 0.00 | 0.00 | 0.00 | 22 | 1018.9 |
| 20260508160051 | 63 | 352 | 6.0 | 11.0 | 0.00 | 0.00 | 0.00 | 22 | 1018.9 |
| 20260508155542 | 63 | 27 | 5.0 | 11.0 | 0.00 | 0.00 | 0.00 | 22 | 1018.9 |
| 20260508155042 | 62 | 30 | 7.0 | 12.0 | 0.00 | 0.00 | 0.00 | 22 | 1019.1 |
| 20260508154554 | 62 | 39 | 5.0 | 12.0 | 0.00 | 0.00 | 0.00 | 22 | 1019.0 |
| 20260508154042 | 62 | 311 | 6.0 | 12.0 | 0.00 | 0.00 | 0.00 | 23 | 1019.0 |
| 20260508153543 | 61 | 352 | 6.0 | 11.0 | 0.00 | 0.00 | 0.00 | 22 | 1018.9 |
| 20260508153053 | 61 | 5 | 5.0 | 10.0 | 0.00 | 0.00 | 0.00 | 22 | 1019.0 |
| 20260508152542 | 60 | 324 | 6.0 | 10.0 | 0.00 | 0.00 | 0.00 | 23 | 1019.0 |
| 20260508152042 | 60 | 347 | 5.0 | 12.0 | 0.00 | 0.00 | 0.00 | 22 | 1019.1 |
| 20260508151554 | 59 | 38 | 6.0 | 12.0 | 0.00 | 0.00 | 0.00 | 23 | 1019.1 |
| 20260508151042 | 59 | 313 | 8.0 | 13.0 | 0.00 | 0.00 | 0.00 | 23 | 1018.9 |
| 20260508150547 | 59 | 355 | 7.0 | 13.0 | 0.00 | 0.00 | 0.00 | 23 | 1019.0 |
| 20260508150050 | 58 | 340 | 6.0 | 13.0 | 0.00 | 0.00 | 0.00 | 23 | 1018.9 |
| 20260508145543 | 58 | 5 | 8.0 | 11.0 | 0.00 | 0.00 | 0.00 | 23 | 1018.8 |
| 20260508145043 | 58 | 350 | 7.0 | 12.0 | 0.00 | 0.00 | 0.00 | 24 | 1018.9 |
| 20260508144548 | 58 | 360 | 5.0 | 12.0 | 0.00 | 0.00 | 0.00 | 25 | 1018.9 |
| 20260508144043 | 58 | 360 | 7.0 | 14.0 | 0.00 | 0.00 | 0.00 | 24 | 1018.8 |
| 20260508143543 | 57 | 329 | 6.0 | 14.0 | 0.00 | 0.00 | 0.00 | 25 | 1018.8 |
| 20260508143056 | 57 | 337 | 8.0 | 13.0 | 0.00 | 0.00 | 0.00 | 25 | 1018.8 |
| 20260508142542 | 57 | 333 | 6.0 | 13.0 | 0.00 | 0.00 | 0.00 | 25 | 1018.9 |
| 20260508142042 | 57 | 350 | 8.0 | 13.0 | 0.00 | 0.00 | 0.00 | 25 | 1018.9 |
| 20260508141544 | 57 | 12 | 5.0 | 13.0 | 0.00 | 0.00 | 0.00 | 26 | 1018.9 |
| 20260508141042 | 56 | 28 | 6.0 | 13.0 | 0.00 | 0.00 | 0.00 | 26 | 1018.8 |
| 20260508140542 | 56 | 352 | 7.0 | 14.0 | 0.00 | 0.00 | 0.00 | 25 | 1018.8 |
| 20260508140048 | 56 | 347 | 8.0 | 14.0 | 0.00 | 0.00 | 0.00 | 25 | 1018.8 |